Time,TemperatureF,DewpointF,PressureIn,WindDirection,WindDirectionDegrees,WindSpeedMPH,WindSpeedGustMPH,Humidity,HourlyPrecipIn,Conditions,Clouds,dailyrainin,SoftwareType,DateUTC
2013-03-06 00:01:00,29.6,26.0,29.71,South,190,5.0,24.0,87,0.00,,,0.00,weatherlink.com 1.10,2013-03-06 05:01:00,
2013-03-06 00:16:00,29.2,26.0,29.70,NNW,348,12.0,28.0,88,0.00,,,0.00,weatherlink.com 1.10,2013-03-06 05:16:00,
2013-03-06 00:31:00,28.5,26.0,29.69,NW,309,18.0,32.0,89,0.00,,,0.00,weatherlink.com 1.10,2013-03-06 05:31:00,
2013-03-06 00:46:00,27.9,25.0,29.67,WNW,299,7.0,27.0,89,0.00,,,0.00,weatherlink.com 1.10,2013-03-06 05:46:00,
2013-03-06 01:01:00,27.4,25.0,29.68,NE,41,8.0,29.0,90,0.00,,,0.00,weatherlink.com 1.10,2013-03-06 06:01:00,
2013-03-06 01:16:00,27.2,25.0,29.68,NNW,332,6.0,21.0,90,0.00,,,0.00,weatherlink.com 1.10,2013-03-06 06:16:00,
2013-03-06 01:31:00,26.9,24.0,29.66,North,9,6.0,33.0,90,0.00,,,0.00,weatherlink.com 1.10,2013-03-06 06:31:00,
2013-03-06 01:46:00,26.8,24.0,29.66,ESE,105,7.0,26.0,87,0.00,,,0.00,weatherlink.com 1.10,2013-03-06 06:46:00,
2013-03-06 02:01:00,26.5,23.0,29.69,ENE,60,4.0,31.0,88,0.00,,,0.00,weatherlink.com 1.10,2013-03-06 07:01:00,
2013-03-06 02:16:00,26.1,23.0,29.71,West,261,6.0,27.0,87,0.00,,,0.00,weatherlink.com 1.10,2013-03-06 07:16:00,
2013-03-06 02:31:00,25.7,22.0,29.72,NNE,33,5.0,24.0,87,0.00,,,0.00,weatherlink.com 1.10,2013-03-06 07:31:00,
2013-03-06 02:46:00,24.9,20.0,29.71,WSW,244,7.0,25.0,82,0.00,,,0.00,weatherlink.com 1.10,2013-03-06 07:46:00,
2013-03-06 03:01:00,24.5,20.0,29.70,West,264,15.0,26.0,83,0.01,,,0.01,weatherlink.com 1.10,2013-03-06 08:01:00,
2013-03-06 03:16:00,24.1,20.0,29.70,NW,317,19.0,24.0,84,0.01,,,0.01,weatherlink.com 1.10,2013-03-06 08:16:00,
2013-03-06 03:31:00,24.0,20.0,29.72,WSW,258,12.0,19.0,84,0.01,,,0.01,weatherlink.com 1.10,2013-03-06 08:31:00,
2013-03-06 03:46:00,23.5,20.0,29.71,NW,311,8.0,21.0,86,0.01,,,0.01,weatherlink.com 1.10,2013-03-06 08:46:00,
2013-03-06 04:01:00,23.3,20.0,29.72,WNW,297,19.0,24.0,87,0.00,,,0.01,weatherlink.com 1.10,2013-03-06 09:01:00,
2013-03-06 04:16:00,23.3,20.0,29.72,WNW,292,8.0,27.0,86,0.00,,,0.01,weatherlink.com 1.10,2013-03-06 09:16:00,
2013-03-06 04:31:00,23.0,20.0,29.71,NNE,26,12.0,20.0,87,0.00,,,0.01,weatherlink.com 1.10,2013-03-06 09:31:00,
2013-03-06 04:46:00,22.6,20.0,29.71,NE,40,7.0,19.0,89,0.00,,,0.01,weatherlink.com 1.10,2013-03-06 09:46:00,
2013-03-06 05:01:00,22.3,20.0,29.73,NE,36,8.0,21.0,90,0.00,,,0.01,weatherlink.com 1.10,2013-03-06 10:01:00,
2013-03-06 05:16:00,21.8,20.0,29.73,West,260,7.0,16.0,91,0.00,,,0.01,weatherlink.com 1.10,2013-03-06 10:16:00,
2013-03-06 05:31:00,21.6,19.0,29.73,NE,37,8.0,19.0,91,0.00,,,0.01,weatherlink.com 1.10,2013-03-06 10:31:00,
2013-03-06 05:46:00,21.4,20.0,29.73,ENE,59,3.0,24.0,92,0.00,,,0.01,weatherlink.com 1.10,2013-03-06 10:46:00,
2013-03-06 06:01:00,21.3,19.0,29.73,NNE,27,13.0,23.0,91,0.00,,,0.01,weatherlink.com 1.10,2013-03-06 11:01:00,
2013-03-06 06:16:00,21.4,19.0,29.75,North,5,5.0,23.0,91,0.00,,,0.01,weatherlink.com 1.10,2013-03-06 11:16:00,
2013-03-06 06:31:00,21.5,19.0,29.75,NNE,32,12.0,25.0,91,0.00,,,0.01,weatherlink.com 1.10,2013-03-06 11:31:00,
2013-03-06 06:46:00,21.5,19.0,29.75,NNE,26,11.0,23.0,91,0.00,,,0.01,weatherlink.com 1.10,2013-03-06 11:46:00,
2013-03-06 07:01:00,21.6,19.0,29.74,North,350,8.0,37.0,91,0.00,,,0.01,weatherlink.com 1.10,2013-03-06 12:01:00,
2013-03-06 07:16:00,21.8,19.0,29.75,WNW,295,9.0,32.0,90,0.00,,,0.01,weatherlink.com 1.10,2013-03-06 12:16:00,
2013-03-06 07:31:00,21.9,20.0,29.74,NE,34,12.0,27.0,90,0.00,,,0.01,weatherlink.com 1.10,2013-03-06 12:31:00,
2013-03-06 07:46:00,22.1,20.0,29.75,NW,315,13.0,35.0,90,0.00,,,0.01,weatherlink.com 1.10,2013-03-06 12:46:00,
2013-03-06 08:02:00,22.3,20.0,29.76,North,355,10.0,36.0,90,0.00,,,0.01,weatherlink.com 1.10,2013-03-06 13:02:00,
2013-03-06 08:17:00,22.4,20.0,29.76,North,355,7.0,31.0,91,0.00,,,0.01,weatherlink.com 1.10,2013-03-06 13:17:00,
2013-03-06 08:32:00,22.4,20.0,29.78,North,360,11.0,32.0,91,0.00,,,0.01,weatherlink.com 1.10,2013-03-06 13:32:00,
2013-03-06 08:47:00,23.0,21.0,29.82,NNE,26,11.0,31.0,91,0.00,,,0.01,weatherlink.com 1.10,2013-03-06 13:47:00,
2013-03-06 09:02:00,23.5,21.0,29.82,NNE,24,5.0,34.0,90,0.00,,,0.01,weatherlink.com 1.10,2013-03-06 14:02:00,
2013-03-06 09:18:00,24.1,21.0,29.81,NE,48,9.0,30.0,89,0.00,,,0.01,weatherlink.com 1.10,2013-03-06 14:18:00,
2013-03-06 09:32:00,24.6,22.0,29.80,North,9,11.0,32.0,89,0.00,,,0.01,weatherlink.com 1.10,2013-03-06 14:32:00,
2013-03-06 09:47:00,23.9,21.0,29.82,North,355,6.0,33.0,88,0.00,,,0.01,weatherlink.com 1.10,2013-03-06 14:47:00,
2013-03-06 10:02:00,23.8,21.0,29.84,North,355,17.0,27.0,89,0.00,,,0.01,weatherlink.com 1.10,2013-03-06 15:02:00,
2013-03-06 10:17:00,25.4,22.0,29.85,North,355,16.0,30.0,87,0.00,,,0.01,weatherlink.com 1.10,2013-03-06 15:17:00,
2013-03-06 10:32:00,26.1,22.0,29.86,North,355,11.0,39.0,85,0.00,,,0.01,weatherlink.com 1.10,2013-03-06 15:32:00,
2013-03-06 10:47:00,26.6,22.0,29.86,North,349,16.0,28.0,83,0.00,,,0.01,weatherlink.com 1.10,2013-03-06 15:47:00,
2013-03-06 11:02:00,27.0,22.0,29.86,NNW,341,11.0,34.0,80,0.00,,,0.01,weatherlink.com 1.10,2013-03-06 16:02:00,
2013-03-06 11:18:00,27.4,22.0,29.88,NNE,15,15.0,30.0,80,0.00,,,0.01,weatherlink.com 1.10,2013-03-06 16:18:00,
2013-03-06 11:33:00,27.5,23.0,29.90,NNW,342,7.0,27.0,82,0.00,,,0.01,weatherlink.com 1.10,2013-03-06 16:33:00,
2013-03-06 11:48:00,27.8,24.0,29.91,NNW,340,9.0,33.0,85,0.00,,,0.01,weatherlink.com 1.10,2013-03-06 16:48:00,
2013-03-06 12:03:00,27.7,23.0,29.92,East,84,9.0,29.0,83,0.00,,,0.01,weatherlink.com 1.10,2013-03-06 17:03:00,
2013-03-06 12:18:00,28.0,24.0,29.93,NNW,331,14.0,24.0,84,0.00,,,0.01,weatherlink.com 1.10,2013-03-06 17:18:00,
2013-03-06 12:33:00,27.7,24.0,29.95,NNE,30,10.0,25.0,84,0.00,,,0.01,weatherlink.com 1.10,2013-03-06 17:33:00,
2013-03-06 12:48:00,26.8,23.0,29.96,North,11,10.0,24.0,85,0.00,,,0.01,weatherlink.com 1.10,2013-03-06 17:48:00,
2013-03-06 13:03:00,26.5,23.0,29.97,NNW,333,15.0,28.0,87,0.00,,,0.01,weatherlink.com 1.10,2013-03-06 18:03:00,
2013-03-06 13:18:00,26.8,24.0,29.97,North,360,11.0,26.0,87,0.00,,,0.01,weatherlink.com 1.10,2013-03-06 18:18:00,
2013-03-06 13:33:00,26.2,23.0,29.96,NNW,342,10.0,30.0,88,0.00,,,0.01,weatherlink.com 1.10,2013-03-06 18:33:00,
2013-03-06 13:48:00,26.1,23.0,29.97,North,355,22.0,27.0,88,0.00,,,0.01,weatherlink.com 1.10,2013-03-06 18:48:00,
2013-03-06 14:03:00,26.4,24.0,29.96,West,274,19.0,34.0,89,0.00,,,0.01,weatherlink.com 1.10,2013-03-06 19:03:00,
2013-03-06 14:18:00,26.9,24.0,29.99,WNW,294,11.0,27.0,88,0.00,,,0.01,weatherlink.com 1.10,2013-03-06 19:18:00,
2013-03-06 14:33:00,26.7,23.0,29.99,West,269,7.0,26.0,86,0.00,,,0.01,weatherlink.com 1.10,2013-03-06 19:33:00,
2013-03-06 14:48:00,26.8,23.0,30.01,NNW,333,8.0,26.0,85,0.00,,,0.01,weatherlink.com 1.10,2013-03-06 19:48:00,
2013-03-06 15:03:00,26.8,24.0,30.02,WNW,297,16.0,29.0,87,0.00,,,0.01,weatherlink.com 1.10,2013-03-06 20:03:00,
2013-03-06 15:17:00,26.5,23.0,30.04,South,182,5.0,20.0,87,0.00,,,0.01,weatherlink.com 1.10,2013-03-06 20:17:00,
2013-03-06 15:32:00,26.3,23.0,30.05,North,355,6.0,29.0,88,0.00,,,0.01,weatherlink.com 1.10,2013-03-06 20:32:00,
2013-03-06 15:47:00,26.1,23.0,30.06,NNW,340,10.0,25.0,87,0.00,,,0.01,weatherlink.com 1.10,2013-03-06 20:47:00,
2013-03-06 16:02:00,25.7,23.0,30.07,North,355,6.0,24.0,89,0.00,,,0.01,weatherlink.com 1.10,2013-03-06 21:02:00,
2013-03-06 16:17:00,25.5,23.0,30.08,North,355,14.0,18.0,89,0.00,,,0.01,weatherlink.com 1.10,2013-03-06 21:17:00,
2013-03-06 16:32:00,25.2,23.0,30.09,North,355,9.0,24.0,90,0.00,,,0.01,weatherlink.com 1.10,2013-03-06 21:32:00,
2013-03-06 16:47:00,25.0,23.0,30.11,NNW,343,8.0,27.0,90,0.00,,,0.01,weatherlink.com 1.10,2013-03-06 21:47:00,
2013-03-06 17:03:00,24.7,23.0,30.11,North,9,8.0,26.0,91,0.00,,,0.01,weatherlink.com 1.10,2013-03-06 22:03:00,
2013-03-06 17:17:00,24.6,22.0,30.12,NNW,331,7.0,33.0,91,0.00,,,0.01,weatherlink.com 1.10,2013-03-06 22:17:00,
2013-03-06 17:32:00,24.5,22.0,30.13,North,5,19.0,28.0,91,0.00,,,0.01,weatherlink.com 1.10,2013-03-06 22:32:00,
2013-03-06 17:48:00,24.5,22.0,30.15,North,5,11.0,23.0,91,0.00,,,0.01,weatherlink.com 1.10,2013-03-06 22:48:00,
2013-03-06 18:03:00,24.2,22.0,30.16,NNE,32,9.0,26.0,92,0.00,,,0.01,weatherlink.com 1.10,2013-03-06 23:03:00,
2013-03-06 18:18:00,24.3,22.0,30.16,NNE,15,8.0,22.0,92,0.00,,,0.01,weatherlink.com 1.10,2013-03-06 23:18:00,
2013-03-06 18:33:00,24.2,22.0,30.18,NNW,342,12.0,23.0,91,0.00,,,0.01,weatherlink.com 1.10,2013-03-06 23:33:00,
2013-03-06 18:48:00,24.1,22.0,30.18,NNW,343,14.0,25.0,92,0.00,,,0.01,weatherlink.com 1.10,2013-03-06 23:48:00,
2013-03-06 19:03:00,24.1,22.0,30.18,NNW,342,8.0,24.0,92,0.00,,,0.01,weatherlink.com 1.10,2013-03-07 00:03:00,
2013-03-06 19:18:00,24.1,22.0,30.19,NNW,336,22.0,24.0,92,0.00,,,0.01,weatherlink.com 1.10,2013-03-07 00:18:00,
2013-03-06 19:33:00,24.2,22.0,30.19,NW,324,10.0,25.0,91,0.00,,,0.01,weatherlink.com 1.10,2013-03-07 00:33:00,
2013-03-06 19:49:00,24.2,22.0,30.19,North,5,5.0,24.0,91,0.00,,,0.01,weatherlink.com 1.10,2013-03-07 00:49:00,
2013-03-06 20:03:00,24.2,22.0,30.20,NW,326,7.0,28.0,91,0.00,,,0.01,weatherlink.com 1.10,2013-03-07 01:03:00,
2013-03-06 20:18:00,24.2,22.0,30.19,NNW,334,10.0,26.0,91,0.00,,,0.01,weatherlink.com 1.10,2013-03-07 01:18:00,
2013-03-06 21:17:00,24.2,22.0,30.22,NW,311,6.0,20.0,92,0.00,,,0.01,weatherlink.com 1.10,2013-03-07 02:17:00,
2013-03-06 21:34:00,24.1,22.0,30.22,NNW,344,6.0,21.0,92,0.00,,,0.01,weatherlink.com 1.10,2013-03-07 02:34:00,
2013-03-06 21:49:00,24.0,22.0,30.22,NW,321,19.0,22.0,92,0.00,,,0.01,weatherlink.com 1.10,2013-03-07 02:49:00,
2013-03-06 22:04:00,23.9,22.0,30.22,NW,318,7.0,26.0,92,0.00,,,0.01,weatherlink.com 1.10,2013-03-07 03:04:00,
2013-03-06 22:19:00,23.9,22.0,30.24,North,355,10.0,27.0,92,0.00,,,0.01,weatherlink.com 1.10,2013-03-07 03:19:00,
2013-03-06 22:34:00,23.9,22.0,30.25,North,355,11.0,21.0,92,0.00,,,0.01,weatherlink.com 1.10,2013-03-07 03:34:00,
2013-03-06 22:49:00,23.8,22.0,30.25,NNE,20,9.0,24.0,93,0.00,,,0.01,weatherlink.com 1.10,2013-03-07 03:49:00,
2013-03-06 23:04:00,23.7,22.0,30.25,North,355,11.0,22.0,93,0.00,,,0.01,weatherlink.com 1.10,2013-03-07 04:04:00,
2013-03-06 23:19:00,23.7,22.0,30.25,NNW,336,8.0,17.0,93,0.00,,,0.01,weatherlink.com 1.10,2013-03-07 04:19:00,
2013-03-06 23:34:00,23.6,22.0,30.26,NNW,338,9.0,21.0,93,0.00,,,0.01,weatherlink.com 1.10,2013-03-07 04:34:00,
2013-03-06 23:49:00,23.7,22.0,30.26,NW,306,14.0,20.0,93,0.00,,,0.01,weatherlink.com 1.10,2013-03-07 04:49:00,